ZHONGXING-19

Last updated on Wed Sep 17 2025 00:02:51 GMT+0000 (Coordinated Universal Time)

1 54230U 22148A 25258.90238406 -.00000098 00000+0 00000+0 0 9991 2 54230 0.0159 156.3438 0006496 68.3012 258.6711 1.00272024 10634
UTC large
Height (km)
Speed (km/s)
/
Latitude / Longitude
Inclination (degrees)
Orbital Period (minutes)
Azimuth
Elevation
Range (km)
Doppler Factor

Next 0 passes for location: London (51.5072 / 0.1276)

Sorry there are no passes over London.